Weather History for KBQK - August, 2012

Change the Weather History Date:

Sunday, August 5, 2012

  Actual Average Record
Temperature  
Mean Temperature 82 °F -  
Max Temperature 87 °F 91 °F 101 °F (1954)
Min Temperature 78 °F 72 °F 64 °F (1998)
Cooling Degree Days 18    
Growing Degree Days 32 (Base 50)    
Moisture  
Dew Point 77 °F    
Average Humidity 86    
Maximum Humidity 94    
Minimum Humidity 66    
Precipitation  
Precipitation 0.00 in - - ()
Sea Level Pressure  
Sea Level Pressure 30.12 in    
Wind  
Wind Speed 9 mph (SE)    
Max Wind Speed 18 mph    
Max Gust Speed 33 mph    
Visibility 9 miles    
Events Thunderstorm    
Averages and records for this station are not official NWS values.
T = Trace of Precipitation, MM = Missing Value Source: NWS Daily Summary

Daily Weather History Graph

Daily Weather History Graph

Search for Another Location

Airport or City:

Trip Planner

Search our weather history database for the weather conditions in past years. The results will help you decide how hot, cold, wet, or windy it might be!

Date:

Astronomy

Aug. 05, 2012 Rise Set
Actual Time 6:45 AM EDT 8:17 PM EDT
Civil Twilight 6:19 AM EDT 8:43 PM EDT
Nautical Twilight 5:48 AM EDT 9:14 PM EDT
Astronomical Twilight 5:15 AM EDT 9:47 PM EDT
Moon 10:17 PM EDT (8/5) 10:13 AM EDT (8/5)
Length of Visible Light 14h 24m
Length of Day
13h 32m
Waning Gibbous, 86% of the Moon is Illuminated
Aug 5
Waning Gibbous
Aug 9
Last Quarter
Aug 17
New
Aug 24
First Quarter
Aug 31
Full

Hourly Weather History & Observations

Time (EDT) Temp. Heat Index Dew Point Humidity Pressure Visibility Wind Dir Wind Speed Gust Speed Precip Events Conditions
12:15 AM 82.4 °F 90.9 °F 77.0 °F 84% 30.13 in 10.0 mi East 10.4 mph - N/A   Mostly Cloudy
12:35 AM 82.4 °F 90.9 °F 77.0 °F 84% 30.12 in 10.0 mi East 11.5 mph - N/A   Scattered Clouds
12:55 AM 82.4 °F 92.4 °F 78.8 °F 89% 30.14 in 10.0 mi SE 18.4 mph 23.0 mph N/A   Mostly Cloudy
1:15 AM 78.8 °F - 75.2 °F 89% 30.14 in 2.5 mi ESE 9.2 mph 19.6 mph N/A   Overcast
1:35 AM 78.8 °F - 77.0 °F 94% 30.13 in 10.0 mi ENE 8.1 mph - N/A   Overcast
1:55 AM 78.8 °F - 75.2 °F 89% 30.12 in 10.0 mi NE 4.6 mph - N/A   Overcast
2:15 AM 78.8 °F - 77.0 °F 94% 30.12 in 10.0 mi NE 3.5 mph - N/A   Overcast
2:35 AM 78.8 °F - 77.0 °F 94% 30.11 in 10.0 mi ENE 4.6 mph - N/A   Overcast
2:55 AM 78.8 °F - 77.0 °F 94% 30.10 in 10.0 mi ENE 5.8 mph - N/A   Mostly Cloudy
3:15 AM 78.8 °F - 77.0 °F 94% 30.08 in 10.0 mi ENE 5.8 mph - N/A   Mostly Cloudy
3:35 AM 80.6 °F 87.1 °F 77.0 °F 89% 30.09 in 3.0 mi East 18.4 mph 28.8 mph N/A   Overcast
3:55 AM 78.8 °F - 77.0 °F 94% 30.08 in 7.0 mi East 9.2 mph - N/A   Overcast
4:15 AM 78.8 °F - 75.2 °F 89% 30.08 in 10.0 mi ENE 5.8 mph - N/A   Mostly Cloudy
4:35 AM 78.8 °F - 75.2 °F 89% 30.08 in 10.0 mi East 6.9 mph - N/A   Scattered Clouds
4:55 AM 78.8 °F - 75.2 °F 89% 30.08 in 10.0 mi East 10.4 mph - N/A   Scattered Clouds
5:15 AM 80.6 °F 86.2 °F 75.2 °F 84% 30.08 in 10.0 mi East 10.4 mph - N/A   Scattered Clouds
5:35 AM 80.6 °F 87.1 °F 77.0 °F 89% 30.09 in 10.0 mi SE 18.4 mph 33.4 mph N/A   Mostly Cloudy
5:55 AM 78.8 °F - 77.0 °F 94% 30.10 in 7.0 mi ESE 13.8 mph 20.7 mph N/A   Overcast
6:15 AM 78.8 °F - 77.0 °F 94% 30.11 in 7.0 mi ESE 12.7 mph 23.0 mph N/A   Overcast
6:35 AM 78.8 °F - 77.0 °F 94% 30.11 in 5.0 mi ESE 10.4 mph - N/A   Overcast
6:55 AM 78.8 °F - 75.2 °F 89% 30.11 in 5.0 mi SE 9.2 mph 17.3 mph N/A   Overcast
7:15 AM 78.8 °F - 77.0 °F 94% 30.12 in 10.0 mi SE 6.9 mph - N/A Thunderstorm Overcast
7:55 AM 80.6 °F 87.1 °F 77.0 °F 89% 30.13 in 7.0 mi SSE 17.3 mph 23.0 mph N/A   Overcast
8:15 AM 78.8 °F - 77.0 °F 94% 30.13 in 2.5 mi SSE 8.1 mph 17.3 mph N/A Thunderstorm Overcast
8:35 AM 78.8 °F - 77.0 °F 94% 30.14 in 10.0 mi South 5.8 mph - N/A   Overcast
8:55 AM 78.8 °F - 77.0 °F 94% 30.14 in 7.0 mi SSE 5.8 mph - N/A   Overcast
9:15 AM 78.8 °F - 77.0 °F 94% 30.13 in 5.0 mi SSE 6.9 mph - N/A   Overcast
9:35 AM 78.8 °F - 77.0 °F 94% 30.15 in 5.0 mi South 11.5 mph - N/A   Overcast
9:55 AM 78.8 °F - 77.0 °F 94% 30.16 in 4.0 mi South 10.4 mph 18.4 mph N/A   Overcast
10:15 AM 78.8 °F - 77.0 °F 94% 30.16 in 10.0 mi South 9.2 mph - N/A   Overcast
10:35 AM 78.8 °F - 77.0 °F 94% 30.15 in 10.0 mi SSE 4.6 mph - N/A   Mostly Cloudy
10:55 AM 80.6 °F 87.1 °F 77.0 °F 89% 30.15 in 10.0 mi South 6.9 mph - N/A   Mostly Cloudy
11:15 AM 80.6 °F 87.1 °F 77.0 °F 89% 30.16 in 10.0 mi Calm Calm - N/A   Scattered Clouds
11:35 AM 82.4 °F 92.4 °F 78.8 °F 89% 30.16 in 10.0 mi South 6.9 mph - N/A   Scattered Clouds
11:55 AM 84.2 °F 96.1 °F 78.8 °F 84% 30.16 in 10.0 mi SSE 4.6 mph - N/A   Mostly Cloudy
12:15 PM 86.0 °F 99.3 °F 78.8 °F 79% 30.16 in 10.0 mi SE 8.1 mph - N/A   Mostly Cloudy
12:35 PM 84.2 °F 96.1 °F 78.8 °F 84% 30.16 in 7.0 mi SE 6.9 mph - N/A   Mostly Cloudy
12:55 PM 82.4 °F 92.4 °F 78.8 °F 89% 30.16 in 10.0 mi SE 5.8 mph - N/A   Mostly Cloudy
1:15 PM 86.0 °F 101.9 °F 80.6 °F 84% 30.15 in 10.0 mi SSE 6.9 mph - N/A   Mostly Cloudy
1:55 PM 84.2 °F 96.1 °F 78.8 °F 84% 30.15 in 10.0 mi SE 9.2 mph - N/A   Overcast
2:15 PM 82.4 °F 92.4 °F 78.8 °F 89% 30.14 in 10.0 mi SSE 5.8 mph - N/A   Overcast
2:35 PM 84.2 °F 96.1 °F 78.8 °F 84% 30.13 in 10.0 mi ESE 9.2 mph - N/A   Mostly Cloudy
2:55 PM 86.0 °F 99.3 °F 78.8 °F 79% 30.13 in 10.0 mi SE 8.1 mph - N/A   Scattered Clouds
3:15 PM 86.0 °F 96.9 °F 77.0 °F 74% 30.12 in 10.0 mi SE 8.1 mph - N/A   Clear
3:35 PM 87.8 °F 99.7 °F 77.0 °F 70% 30.12 in 10.0 mi ESE 10.4 mph - N/A   Clear
3:55 PM 87.8 °F 97.6 °F 75.2 °F 66% 30.11 in 10.0 mi SE 9.2 mph - N/A   Clear
4:35 PM 87.8 °F 99.7 °F 77.0 °F 70% 30.11 in 10.0 mi SSE 8.1 mph - N/A   Scattered Clouds
4:55 PM 87.8 °F 99.7 °F 77.0 °F 70% 30.11 in 10.0 mi ESE 10.4 mph - N/A   Scattered Clouds
6:35 PM 86.0 °F 96.9 °F 77.0 °F 74% 30.11 in 10.0 mi ESE 10.4 mph - N/A Thunderstorm Clear
6:55 PM 86.0 °F 96.9 °F 77.0 °F 74% 30.11 in 10.0 mi ESE 10.4 mph - N/A   Clear
7:15 PM 84.2 °F 94.1 °F 77.0 °F 79% 30.10 in 10.0 mi ESE 10.4 mph - N/A   Clear
7:35 PM 84.2 °F 94.1 °F 77.0 °F 79% 30.09 in 10.0 mi ESE 8.1 mph - N/A   Clear
7:55 PM 82.4 °F 90.9 °F 77.0 °F 84% 30.09 in 10.0 mi ESE 8.1 mph - N/A   Clear
8:15 PM 82.4 °F 90.9 °F 77.0 °F 84% 30.09 in 10.0 mi ESE 6.9 mph - N/A   Clear
8:35 PM 82.4 °F 90.9 °F 77.0 °F 84% 30.09 in 10.0 mi SE 5.8 mph - N/A   Clear
8:55 PM 82.4 °F 90.9 °F 77.0 °F 84% 30.10 in 10.0 mi SE 5.8 mph - N/A   Clear
9:15 PM 82.4 °F 90.9 °F 77.0 °F 84% 30.10 in 10.0 mi SE 4.6 mph - N/A   Clear
9:35 PM 82.4 °F 90.9 °F 77.0 °F 84% 30.11 in 10.0 mi ESE 3.5 mph - N/A   Clear
9:55 PM 82.4 °F 90.9 °F 77.0 °F 84% 30.11 in 10.0 mi SE 4.6 mph - N/A   Clear
10:15 PM 82.4 °F 90.9 °F 77.0 °F 84% 30.13 in 10.0 mi ESE 3.5 mph - N/A   Clear
10:35 PM 82.4 °F 90.9 °F 77.0 °F 84% 30.13 in 10.0 mi SSE 3.5 mph - N/A   Clear
10:55 PM 82.4 °F 90.9 °F 77.0 °F 84% 30.14 in 10.0 mi ESE 3.5 mph - N/A   Clear
11:15 PM 80.6 °F 87.1 °F 77.0 °F 89% 30.14 in 10.0 mi Calm Calm - N/A   Clear
11:35 PM 80.6 °F 87.1 °F 77.0 °F 89% 30.14 in 10.0 mi Calm Calm - N/A   Clear